User: anonymous   Login
Location: Esp�n
(42.4593°N, 0.2047°W)
Time: 11:42:13
(UTC+00:00)
Language:

STARLINK-70 - Orbit

View from above orbital plane
View from above orbital plane
View from above satellite
View from above satellite

Ground track
Ground track

The orbit data is extracted from the following two-line orbital elements,

1 44281U 19029AY  20227.25001157 -.00004178  00000-0 -11908-3 0  9998
2 44281  52.9989 296.9163 0001251  88.2688  21.2669 15.32676974 67940
Epoch (UTC): 14 August 2020 06:00:01
Eccentricity: 0.0001251
inclination: 52.9989°
perigee height: 467 km
apogee height: 468 km
right ascension of ascending node: 296.9163°
argument of perigee: 88.2688°
revolutions per day: 15.32676974
mean anomaly at epoch: 21.2669°
orbit number at epoch: 6794

The dashed part of the orbit path shows where the satellite is in the earth's shadow,  

DLR